• In Hungary
  • List of Countries
  • For 7 days
  • Water Temperature
  • Satellite Maps
  • Weather Map
  • News
  • Weather Widgets
  • user-avatar
    Login

    Hourly Weather Tyulebaevo

    Today, 18 July, Wednesday

    Time Temperature Precipitation Wind Pressure Humidity
    00:00 +20°C° 0.2 mm 4 mps 733 mmHg 89%
    01:00 +20°C° 0.2 mm 5 mps 732 mmHg 88%
    02:00 +20°C° 0 mm 5 mps 732 mmHg 85%
    03:00 +20°C° 0 mm 5 mps 732 mmHg 81%
    04:00 +20°C° 0 mm 4 mps 732 mmHg 78%
    05:00 +20°C° 0.2 mm 5 mps 732 mmHg 78%
    06:00 +20°C° 0.2 mm 5 mps 732 mmHg 77%
    07:00 +20°C° 0.2 mm 5 mps 732 mmHg 77%
    08:00 +21°C° 0.3 mm 5 mps 732 mmHg 76%
    09:00 +22°C° 0.3 mm 5 mps 732 mmHg 75%
    10:00 +23°C° 0.3 mm 6 mps 732 mmHg 74%
    11:00 +23°C° 0.6 mm 6 mps 732 mmHg 77%
    12:00 +23°C° 0.6 mm 6 mps 732 mmHg 79%
    13:00 +23°C° 0.6 mm 6 mps 732 mmHg 82%
    14:00 +23°C° 0.8 mm 6 mps 732 mmHg 83%
    15:00 +23°C° 0.8 mm 5 mps 732 mmHg 83%
    16:00 +23°C° 0.8 mm 5 mps 732 mmHg 84%
    17:00 +23°C° 0.6 mm 5 mps 732 mmHg 85%
    18:00 +22°C° 0.6 mm 4 mps 732 mmHg 86%
    19:00 +22°C° 0.6 mm 3 mps 732 mmHg 86%
    20:00 +21°C° 0.2 mm 3 mps 732 mmHg 89%
    21:00 +20°C° 0.2 mm 3 mps 732 mmHg 91%
    22:00 +19°C° 0.2 mm 3 mps 732 mmHg 93%
    23:00 +19°C° 0.6 mm 2 mps 732 mmHg 94%

    Tomorrow, 19 July, Thursday

    Time Temperature Precipitation Wind Pressure Humidity
    00:00 +19°C° 0.6 mm 2 mps 732 mmHg 95%
    01:00 +18°C° 0.6 mm 2 mps 732 mmHg 96%
    02:00 +18°C° 0.3 mm 2 mps 732 mmHg 96%
    03:00 +18°C° 0.3 mm 2 mps 732 mmHg 96%
    04:00 +18°C° 0.3 mm 1 mps 732 mmHg 95%
    05:00 +19°C° 0.1 mm 1 mps 733 mmHg 94%
    06:00 +20°C° 0.1 mm 1 mps 733 mmHg 92%
    07:00 +21°C° 0.1 mm 1 mps 733 mmHg 91%
    08:00 +23°C° 0.3 mm 1 mps 733 mmHg 85%
    09:00 +25°C° 0.3 mm 1 mps 733 mmHg 80%
    10:00 +27°C° 0.3 mm 1 mps 733 mmHg 74%
    11:00 +27°C° 0.2 mm 1 mps 733 mmHg 67%
    12:00 +28°C° 0.2 mm 2 mps 733 mmHg 61%
    13:00 +29°C° 0.2 mm 2 mps 734 mmHg 55%
    14:00 +29°C° 0.1 mm 2 mps 734 mmHg 55%
    15:00 +29°C° 0.1 mm 1 mps 734 mmHg 55%
    16:00 +30°C° 0.1 mm 1 mps 734 mmHg 55%
    17:00 +29°C° 0.1 mm 1 mps 734 mmHg 61%
    18:00 +28°C° 0.1 mm 1 mps 734 mmHg 67%
    19:00 +25°C° 0.1 mm 0 mps 734 mmHg 73%
    20:00 +23°C° 0 mm 0 mps 734 mmHg 77%
    21:00 +23°C° 0 mm 1 mps 734 mmHg 80%
    22:00 +21°C° 0 mm 1 mps 734 mmHg 83%
    23:00 +21°C° 0 mm 1 mps 734 mmHg 85%

    Day after tomorrow, 20 July, Friday

    Time Temperature Precipitation Wind Pressure Humidity
    00:00 +20°C° 0 mm 1 mps 734 mmHg 86%
    01:00 +20°C° 0 mm 1 mps 734 mmHg 88%
    02:00 +20°C° 0 mm 1 mps 734 mmHg 88%
    03:00 +19°C° 0 mm 1 mps 734 mmHg 88%
    04:00 +19°C° 0 mm 1 mps 734 mmHg 89%
    05:00 +21°C° 0 mm 1 mps 734 mmHg 85%
    06:00 +22°C° 0 mm 1 mps 734 mmHg 82%
    07:00 +24°C° 0 mm 1 mps 734 mmHg 78%
    08:00 +25°C° 0.1 mm 1 mps 734 mmHg 73%
    09:00 +27°C° 0.1 mm 1 mps 734 mmHg 67%
    10:00 +28°C° 0.1 mm 1 mps 734 mmHg 62%
    11:00 +29°C° 0.1 mm 1 mps 734 mmHg 59%
    12:00 +30°C° 0.1 mm 1 mps 734 mmHg 55%
    13:00 +31°C° 0.1 mm 1 mps 734 mmHg 51%
    14:00 +30°C° 0.3 mm 1 mps 734 mmHg 55%
    15:00 +30°C° 0.3 mm 1 mps 734 mmHg 59%
    16:00 +29°C° 0.3 mm 1 mps 734 mmHg 63%
    17:00 +28°C° 0.2 mm 1 mps 734 mmHg 69%
    18:00 +27°C° 0.2 mm 2 mps 734 mmHg 75%
    19:00 +26°C° 0.2 mm 2 mps 734 mmHg 82%
    20:00 +24°C° 0 mm 2 mps 734 mmHg 84%
    21:00 +23°C° 0 mm 2 mps 734 mmHg 87%
    22:00 +20°C° 0 mm 2 mps 734 mmHg 89%
    23:00 +20°C° 0 mm 3 mps 734 mmHg 90%

    21 July, Saturday

    Time Temperature Precipitation Wind Pressure Humidity
    00:00 +20°C° 0 mm 3 mps 734 mmHg 92%
    01:00 +20°C° 0 mm 3 mps 734 mmHg 93%
    02:00 +19°C° 0 mm 4 mps 734 mmHg 93%
    03:00 +19°C° 0 mm 4 mps 734 mmHg 93%
    04:00 +19°C° 0 mm 4 mps 734 mmHg 93%
    05:00 +20°C° 0 mm 4 mps 734 mmHg 91%
    06:00 +20°C° 0 mm 5 mps 734 mmHg 88%
    07:00 +21°C° 0 mm 5 mps 735 mmHg 85%
    08:00 +21°C° 0 mm 5 mps 735 mmHg 82%
    09:00 +22°C° 0 mm 5 mps 735 mmHg 79%
    10:00 +23°C° 0 mm 5 mps 735 mmHg 76%
    11:00 +23°C° 0 mm 5 mps 735 mmHg 74%
    12:00 +24°C° 0 mm 6 mps 735 mmHg 71%
    13:00 +24°C° 0 mm 6 mps 735 mmHg 69%
    14:00 +26°C° 0 mm 6 mps 735 mmHg 68%
    15:00 +26°C° 0 mm 6 mps 735 mmHg 67%
    16:00 +26°C° 0 mm 6 mps 735 mmHg 67%
    17:00 +26°C° 0 mm 5 mps 735 mmHg 70%
    18:00 +25°C° 0 mm 5 mps 735 mmHg 73%
    19:00 +23°C° 0 mm 5 mps 735 mmHg 77%
    20:00 +23°C° 0 mm 5 mps 735 mmHg 77%
    21:00 +22°C° 0 mm 5 mps 735 mmHg 77%
    22:00 +21°C° 0 mm 5 mps 735 mmHg 78%
    23:00 +21°C° 0 mm 6 mps 735 mmHg 78%

    22 July, Sunday

    Time Temperature Precipitation Wind Pressure Humidity
    00:00 +20°C° 0 mm 6 mps 735 mmHg 78%
    01:00 +20°C° 0 mm 6 mps 735 mmHg 78%
    02:00 +20°C° 0 mm 6 mps 735 mmHg 79%
    03:00 +19°C° 0 mm 6 mps 735 mmHg 80%
    04:00 +19°C° 0 mm 6 mps 735 mmHg 81%
    05:00 +19°C° 0 mm 6 mps 736 mmHg 80%
    06:00 +20°C° 0 mm 7 mps 736 mmHg 79%
    07:00 +20°C° 0 mm 7 mps 736 mmHg 78%
    08:00 +21°C° 0 mm 7 mps 736 mmHg 73%
    09:00 +22°C° 0 mm 7 mps 736 mmHg 69%
    10:00 +23°C° 0 mm 8 mps 736 mmHg 65%
    11:00 +24°C° 0 mm 7 mps 736 mmHg 62%
    12:00 +24°C° 0 mm 7 mps 736 mmHg 60%
    13:00 +26°C° 0 mm 7 mps 736 mmHg 57%
    14:00 +26°C° 0 mm 7 mps 736 mmHg 57%
    15:00 +26°C° 0 mm 7 mps 736 mmHg 57%
    16:00 +26°C° 0 mm 7 mps 736 mmHg 57%
    17:00 +24°C° 0 mm 6 mps 736 mmHg 59%
    18:00 +22°C° 0 mm 5 mps 737 mmHg 61%
    19:00 +21°C° 0 mm 5 mps 737 mmHg 64%
    20:00 +20°C° 0 mm 5 mps 737 mmHg 62%
    21:00 +19°C° 0 mm 5 mps 737 mmHg 60%
    22:00 +17°C° 0 mm 6 mps 737 mmHg 58%
    23:00 +17°C° 0 mm 6 mps 737 mmHg 58%

    23 July, Monday

    Time Temperature Precipitation Wind Pressure Humidity
    00:00 +16°C° 0 mm 6 mps 737 mmHg 58%
    01:00 +16°C° 0 mm 6 mps 737 mmHg 58%
    02:00 +16°C° 0 mm 6 mps 737 mmHg 58%
    03:00 +15°C° 0 mm 6 mps 737 mmHg 59%
    04:00 +15°C° 0 mm 5 mps 737 mmHg 59%
    05:00 +15°C° 0 mm 5 mps 738 mmHg 60%
    06:00 +15°C° 0 mm 6 mps 738 mmHg 61%
    07:00 +15°C° 0 mm 6 mps 738 mmHg 62%
    08:00 +16°C° 0 mm 6 mps 738 mmHg 59%
    09:00 +19°C° 0 mm 6 mps 738 mmHg 55%
    10:00 +20°C° 0 mm 6 mps 738 mmHg 52%
    11:00 +21°C° 0 mm 6 mps 738 mmHg 50%
    12:00 +22°C° 0 mm 6 mps 738 mmHg 49%
    13:00 +23°C° 0 mm 6 mps 738 mmHg 47%
    14:00 +23°C° 0 mm 6 mps 738 mmHg 48%
    15:00 +23°C° 0 mm 6 mps 738 mmHg 49%
    16:00 +23°C° 0 mm 5 mps 738 mmHg 51%
    17:00 +22°C° 0 mm 5 mps 738 mmHg 55%
    18:00 +20°C° 0 mm 4 mps 738 mmHg 60%
    19:00 +19°C° 0 mm 4 mps 738 mmHg 65%
    20:00 +18°C° 0 mm 4 mps 738 mmHg 66%
    21:00 +17°C° 0 mm 4 mps 738 mmHg 67%
    22:00 +15°C° 0 mm 4 mps 738 mmHg 68%
    23:00 +14°C° 0 mm 3 mps 738 mmHg 69%
    Show more